This is the latest recevied weather packets stored in our database for station/object KC5DP. If no packets are shown the sender has not sent any weather packets the latest 10 day(s).
| Time | Temp. | Humidity | Pressure | Rain* | Wind** | Luminosity | Snow |
|---|---|---|---|---|---|---|---|
| 1777305506 | 28.33° C | 73% | 1014 hPa | 0 mm | - | 486 W/m² | - |
| 1777305202 | 27.78° C | 75% | 1014 hPa | 0 mm | - | 629 W/m² | - |
| 1777304896 | 27.78° C | 74% | 1013.9 hPa | 0 mm | - | 611 W/m² | - |
| 1777304593 | 27.78° C | 76% | 1014 hPa | 0 mm | - | 643 W/m² | - |
| 1777304290 | 28.33° C | 75% | 1014.1 hPa | 0 mm | - | 583 W/m² | - |
| 1777303987 | 28.33° C | 74% | 1013.9 hPa | 0 mm | - | 590 W/m² | - |
| 1777303684 | 27.78° C | 75% | 1013.8 hPa | 0 mm | - | 565 W/m² | - |
| 1777303381 | 27.78° C | 76% | 1013.8 hPa | 0 mm | - | 540 W/m² | - |
| 1777303078 | 27.22° C | 75% | 1013.9 hPa | 0 mm | - | 524 W/m² | - |
| 1777302777 | 27.22° C | 77% | 1013.9 hPa | 0 mm | - | 577 W/m² | - |
| 1777302474 | 27.22° C | 76% | 1013.9 hPa | 0 mm | - | 498 W/m² | - |
| 1777302171 | 27.22° C | 79% | 1013.7 hPa | 0 mm | - | 500 W/m² | - |
| 1777301869 | 27.22° C | 78% | 1013.7 hPa | 0 mm | - | 492 W/m² | - |
| 1777301566 | 26.67° C | 79% | 1013.7 hPa | 0 mm | - | 475 W/m² | - |
| 1777301257 | 27.22° C | 79% | 1013.7 hPa | 0 mm | - | 435 W/m² | - |
| 1777300954 | 26.67° C | 80% | 1013.6 hPa | 0 mm | - | 475 W/m² | - |
| 1777300652 | 26.67° C | 81% | 1013.4 hPa | 0 mm | - | 443 W/m² | - |
| 1777300350 | 26.67° C | 81% | 1013.6 hPa | 0 mm | - | 451 W/m² | - |
| 1777300047 | 26.67° C | 82% | 1013.5 hPa | 0 mm | - | 480 W/m² | - |
| 1777299743 | 26.11° C | 82% | 1013.3 hPa | 0 mm | - | 427 W/m² | - |
| 1777299440 | 25.56° C | 86% | 1013.4 hPa | 0 mm | - | 396 W/m² | - |
| 1777299138 | 25.56° C | 87% | 1013.3 hPa | 0 mm | - | 176 W/m² | - |
| 1777298835 | 25° C | 87% | 1013.4 hPa | 0 mm | - | 192 W/m² | - |
| 1777298531 | 24.44° C | 90% | 1013.5 hPa | 0 mm | - | 294 W/m² | - |
| 1777298229 | 24.44° C | 91% | 1013.4 hPa | 0 mm | - | 111 W/m² | - |
* Rain latest hour (hover to see other rain measurements)
** Current wind speed in m/s (hover to see current wind gust speed)